GIA186 WIII-WIMM

Flight info

Callsign GIA186
Flight time 1h 55m
Altitude 36000
Route GOMEL T10 AKPER
Aircraft A306/H-SDE3FGHIRWY/LB1

Departure

Time 2026-04-21 19:19
Airport Soekarno-Hatta International Airport (WIII)

Arrival

Time 2026-04-21 21:15
Airport Kualanamu International Airport (WIMM)
Time Latitude Longitude Altitude Speed Heading
2026-04-21 18:59 -6.11823 106.66249 42 ft 0 kts 166°
2026-04-21 19:10 -6.11812 106.66247 43 ft 3 kts 161°
2026-04-21 19:10 -6.11793 106.66239 40 ft 3 kts 150°
2026-04-21 19:10 -6.11776 106.66228 41 ft 3 kts 135°
2026-04-21 19:10 -6.11764 106.66213 39 ft 3 kts 117°
2026-04-21 19:11 -6.11757 106.66195 39 ft 3 kts 94°
2026-04-21 19:11 -6.11758 106.66177 39 ft 2 kts 71°
2026-04-21 19:11 -6.11759 106.66173 41 ft 0 kts 68°
2026-04-21 19:15 -6.11757 106.66179 39 ft 2 kts 69°
2026-04-21 19:15 -6.11748 106.66202 42 ft 6 kts 69°
2026-04-21 19:15 -6.11723 106.66266 44 ft 13 kts 69°
2026-04-21 19:15 -6.11688 106.66352 44 ft 14 kts 68°
2026-04-21 19:16 -6.11630 106.66405 44 ft 6 kts
2026-04-21 19:16 -6.11597 106.66393 44 ft 8 kts 340°
2026-04-21 19:16 -6.11517 106.66361 44 ft 16 kts 337°
2026-04-21 19:16 -6.11393 106.66310 44 ft 21 kts 344°
2026-04-21 19:17 -6.11258 106.66479 45 ft 22 kts 69°
2026-04-21 19:17 -6.11194 106.66641 43 ft 28 kts 68°
2026-04-21 19:17 -6.11131 106.66799 45 ft 12 kts 68°
2026-04-21 19:18 -6.11089 106.66820 45 ft 6 kts 349°
2026-04-21 19:18 -6.11020 106.66791 44 ft 15 kts 334°
2026-04-21 19:18 -6.10954 106.66734 45 ft 6 kts 260°
2026-04-21 19:18 -6.10984 106.66672 45 ft 14 kts 243°
2026-04-21 19:19 -6.11088 106.66433 45 ft 72 kts 247°
2026-04-21 19:19 -6.11360 106.65755 45 ft 135 kts 246°
2026-04-21 19:19 -6.11776 106.64712 149 ft 180 kts 248°
2026-04-21 19:19 -6.12202 106.63545 1053 ft 177 kts 252°
2026-04-21 19:20 -6.12568 106.62363 1926 ft 178 kts 258°
2026-04-21 19:20 -6.12462 106.61073 2374 ft 203 kts 292°
2026-04-21 19:20 -6.11835 106.59683 2693 ft 233 kts 295°
2026-04-21 19:20 -6.11157 106.58111 2984 ft 256 kts 292°
2026-04-21 19:21 -6.10517 106.56387 3465 ft 268 kts 290°
2026-04-21 19:21 -6.09911 106.54591 4266 ft 274 kts 288°
2026-04-21 19:21 -6.09321 106.52755 5134 ft 279 kts 288°
2026-04-21 19:21 -6.08737 106.50897 6013 ft 283 kts 288°
2026-04-21 19:22 -6.08133 106.49005 6919 ft 286 kts 292°
2026-04-21 19:22 -6.06987 106.47381 7740 ft 289 kts 323°
2026-04-21 19:22 -6.05270 106.46332 8695 ft 290 kts 333°
2026-04-21 19:22 -6.03477 106.45371 9617 ft 294 kts 333°
2026-04-21 19:23 -6.01675 106.44358 10362 ft 302 kts 331°
2026-04-21 19:23 -5.99792 106.43252 10706 ft 324 kts 330°
2026-04-21 19:23 -5.97795 106.42040 10973 ft 344 kts 330°
2026-04-21 19:23 -5.95697 106.40745 11221 ft 362 kts 329°
2026-04-21 19:24 -5.93508 106.39384 11481 ft 377 kts 329°
2026-04-21 19:24 -5.91252 106.37975 11916 ft 385 kts 329°
2026-04-21 19:24 -5.88962 106.36542 12443 ft 389 kts 329°
2026-04-21 19:24 -5.86680 106.35114 12969 ft 393 kts 329°
2026-04-21 19:25 -5.84349 106.33654 13533 ft 396 kts 329°
2026-04-21 19:25 -5.82002 106.32185 14039 ft 398 kts 329°
2026-04-21 19:25 -5.79640 106.30707 14499 ft 402 kts 329°
2026-04-21 19:25 -5.77258 106.29216 14971 ft 405 kts 329°
2026-04-21 19:26 -5.74862 106.27712 15435 ft 408 kts 328°
2026-04-21 19:26 -5.72538 106.26042 15901 ft 412 kts 323°
2026-04-21 19:26 -5.70277 106.24255 16363 ft 415 kts 322°
2026-04-21 19:26 -5.68008 106.22438 16803 ft 418 kts 322°
2026-04-21 19:27 -5.65726 106.20610 17257 ft 421 kts 322°
2026-04-21 19:27 -5.63457 106.18796 17694 ft 424 kts 322°
2026-04-21 19:27 -5.61140 106.16946 18116 ft 427 kts 322°
2026-04-21 19:27 -5.58803 106.15080 18464 ft 430 kts 322°
2026-04-21 19:28 -5.56455 106.13207 18819 ft 432 kts 322°
2026-04-21 19:28 -5.54095 106.11325 19176 ft 434 kts 322°
2026-04-21 19:28 -5.51724 106.09434 19513 ft 436 kts 322°
2026-04-21 19:28 -5.49346 106.07538 19848 ft 438 kts 322°
2026-04-21 19:29 -5.46951 106.05629 20167 ft 440 kts 322°
2026-04-21 19:29 -5.44546 106.03712 20462 ft 443 kts 322°
2026-04-21 19:29 -5.42128 106.01786 20790 ft 445 kts 322°
2026-04-21 19:29 -5.39699 105.99853 21089 ft 447 kts 322°
2026-04-21 19:30 -5.37256 105.97910 21395 ft 449 kts 322°
2026-04-21 19:30 -5.34801 105.95958 21691 ft 450 kts 322°
2026-04-21 19:30 -5.32339 105.94000 21978 ft 452 kts 322°
2026-04-21 19:30 -5.29868 105.92035 22273 ft 454 kts 322°
2026-04-21 19:31 -5.27387 105.90063 22540 ft 456 kts 322°
2026-04-21 19:31 -5.24897 105.88083 22805 ft 458 kts 322°
2026-04-21 19:31 -5.22421 105.86115 23023 ft 461 kts 322°
2026-04-21 19:31 -5.19905 105.84116 23305 ft 461 kts 322°
2026-04-21 19:32 -5.17354 105.82146 23551 ft 463 kts 324°
2026-04-21 19:32 -5.14747 105.80243 23775 ft 464 kts 325°
2026-04-21 19:32 -5.12106 105.78373 23988 ft 465 kts 325°
2026-04-21 19:32 -5.09445 105.76508 24190 ft 467 kts 326°
2026-04-21 19:33 -5.07678 105.75272 24334 ft 468 kts 325°
2026-04-21 19:33 -5.04111 105.72764 24641 ft 469 kts 325°
2026-04-21 19:33 -5.01442 105.70879 24840 ft 470 kts 325°
2026-04-21 19:33 -4.98774 105.68987 25050 ft 471 kts 325°
2026-04-21 19:34 -4.96093 105.67083 25247 ft 472 kts 325°
2026-04-21 19:34 -4.93403 105.65170 25445 ft 473 kts 325°
2026-04-21 19:34 -4.90748 105.63282 25644 ft 474 kts 325°
2026-04-21 19:34 -4.88057 105.61368 25883 ft 474 kts 325°
2026-04-21 19:35 -4.85359 105.59449 26083 ft 475 kts 325°
2026-04-21 19:35 -4.79957 105.55610 26450 ft 477 kts 325°
2026-04-21 19:35 -4.77243 105.53682 26624 ft 478 kts 325°
2026-04-21 19:36 -4.74520 105.51748 26777 ft 480 kts 325°
2026-04-21 19:36 -4.71792 105.49810 26947 ft 481 kts 325°
2026-04-21 19:36 -4.69062 105.47871 27131 ft 481 kts 325°
2026-04-21 19:36 -4.66327 105.45929 27294 ft 483 kts 325°
2026-04-21 19:37 -4.63578 105.43976 27430 ft 484 kts 325°
2026-04-21 19:37 -4.60830 105.42025 27608 ft 484 kts 325°
2026-04-21 19:37 -4.58109 105.40093 27768 ft 485 kts 325°
2026-04-21 19:37 -4.55320 105.38113 27931 ft 486 kts 325°
2026-04-21 19:38 -4.52588 105.36174 28059 ft 487 kts 325°
2026-04-21 19:38 -4.49824 105.34212 28213 ft 487 kts 325°
2026-04-21 19:38 -4.47990 105.32910 28378 ft 486 kts 325°
2026-04-21 19:38 -4.44301 105.30292 28724 ft 483 kts 325°
2026-04-21 19:39 -4.41561 105.28347 28979 ft 482 kts 325°
2026-04-21 19:39 -4.38815 105.26399 29155 ft 483 kts 325°
2026-04-21 19:39 -4.36076 105.24456 29382 ft 483 kts 325°
2026-04-21 19:39 -4.33335 105.22511 29628 ft 482 kts 325°
2026-04-21 19:40 -4.30600 105.20571 29887 ft 481 kts 325°
2026-04-21 19:40 -4.27904 105.18659 30123 ft 480 kts 325°
2026-04-21 19:40 -4.25176 105.16724 30307 ft 479 kts 325°
2026-04-21 19:40 -4.22455 105.14795 30520 ft 479 kts 325°
2026-04-21 19:41 -4.19730 105.12862 30740 ft 479 kts 325°
2026-04-21 19:41 -4.17013 105.10936 30937 ft 478 kts 325°
2026-04-21 19:41 -4.14298 105.09011 31157 ft 478 kts 325°
2026-04-21 19:41 -4.11585 105.07086 31376 ft 477 kts 324°
2026-04-21 19:42 -4.09019 105.04974 31584 ft 477 kts 319°
2026-04-21 19:42 -4.06549 105.02756 31818 ft 477 kts 318°
2026-04-21 19:42 -4.04111 105.00509 32034 ft 476 kts 317°
2026-04-21 19:42 -4.01688 104.98243 32229 ft 477 kts 317°
2026-04-21 19:43 -3.99271 104.95970 32448 ft 476 kts 317°
2026-04-21 19:43 -3.96860 104.93699 32682 ft 476 kts 317°
2026-04-21 19:43 -3.94478 104.91460 32921 ft 475 kts 317°
2026-04-21 19:43 -3.92068 104.89198 33175 ft 474 kts 317°
2026-04-21 19:44 -3.89658 104.86939 33422 ft 473 kts 317°
2026-04-21 19:44 -3.87255 104.84690 33654 ft 473 kts 317°
2026-04-21 19:44 -3.84853 104.82443 33898 ft 472 kts 317°
2026-04-21 19:44 -3.82455 104.80201 34101 ft 472 kts 317°
2026-04-21 19:45 -3.80056 104.77957 34314 ft 471 kts 317°
2026-04-21 19:45 -3.77664 104.75721 34529 ft 471 kts 317°
2026-04-21 19:45 -3.75266 104.73479 34739 ft 470 kts 317°
2026-04-21 19:45 -3.72879 104.71246 34946 ft 470 kts 317°
2026-04-21 19:46 -3.70494 104.69016 35167 ft 469 kts 317°
2026-04-21 19:46 -3.68111 104.66788 35393 ft 468 kts 317°
2026-04-21 19:46 -3.65724 104.64556 35586 ft 469 kts 317°
2026-04-21 19:46 -3.63342 104.62330 35792 ft 469 kts 317°
2026-04-21 19:47 -3.60960 104.60103 35852 ft 466 kts 317°
2026-04-21 19:47 -3.56262 104.55712 35862 ft 459 kts 317°
2026-04-21 19:48 -3.51600 104.51356 35867 ft 458 kts 317°
2026-04-21 19:48 -3.46961 104.47021 35865 ft 458 kts 317°
2026-04-21 19:49 -3.42295 104.42662 35868 ft 458 kts 317°
2026-04-21 19:49 -3.37637 104.38311 35868 ft 458 kts 317°
2026-04-21 19:50 -3.33759 104.34690 35873 ft 458 kts 317°
2026-04-21 19:50 -3.28332 104.29621 35874 ft 458 kts 317°
2026-04-21 19:51 -3.23673 104.25271 35873 ft 458 kts 317°
2026-04-21 19:51 -3.19013 104.20921 35871 ft 456 kts 317°
2026-04-21 19:52 -3.14413 104.16627 35872 ft 450 kts 317°
2026-04-21 19:52 -3.09842 104.12360 35873 ft 449 kts 317°
2026-04-21 19:53 -3.05270 104.08093 35873 ft 449 kts 317°
2026-04-21 19:53 -3.00696 104.03825 35873 ft 449 kts 317°
2026-04-21 19:54 -2.96894 104.00278 35875 ft 449 kts 317°
2026-04-21 19:54 -2.91579 103.95320 35876 ft 449 kts 317°
2026-04-21 19:55 -2.87009 103.91057 35877 ft 449 kts 317°
2026-04-21 19:55 -2.83178 103.87484 35875 ft 449 kts 317°
2026-04-21 19:56 -2.78600 103.83215 35873 ft 449 kts 317°
2026-04-21 19:56 -2.74021 103.78945 35875 ft 450 kts 317°
2026-04-21 19:57 -2.69471 103.74703 35877 ft 450 kts 317°
2026-04-21 19:57 -2.64889 103.70431 35875 ft 450 kts 317°
2026-04-21 19:58 -2.60304 103.66157 35875 ft 450 kts 317°
2026-04-21 19:58 -2.55727 103.61890 35872 ft 449 kts 317°
2026-04-21 19:59 -2.51154 103.57628 35874 ft 449 kts 317°
2026-04-21 19:59 -2.46583 103.53369 35872 ft 449 kts 317°
2026-04-21 20:00 -2.42041 103.49137 35876 ft 449 kts 317°
2026-04-21 20:00 -2.37469 103.44877 35875 ft 449 kts 317°
2026-04-21 20:01 -2.32897 103.40618 35879 ft 449 kts 317°
2026-04-21 20:01 -2.28329 103.36352 35872 ft 449 kts 317°
2026-04-21 20:02 -2.23756 103.32078 35876 ft 449 kts 317°
2026-04-21 20:02 -2.19180 103.27803 35870 ft 451 kts 317°
2026-04-21 20:03 -2.14617 103.23541 35874 ft 451 kts 317°
2026-04-21 20:03 -2.10022 103.19249 35873 ft 452 kts 317°
2026-04-21 20:04 -2.05430 103.14961 35867 ft 452 kts 317°
2026-04-21 20:04 -2.00838 103.10673 35864 ft 451 kts 317°
2026-04-21 20:05 -1.96253 103.06392 35868 ft 451 kts 317°
2026-04-21 20:05 -1.91665 103.02108 35864 ft 451 kts 317°
2026-04-21 20:06 -1.87075 102.97823 35857 ft 451 kts 317°
2026-04-21 20:06 -1.82483 102.93537 35860 ft 452 kts 317°
2026-04-21 20:07 -1.77882 102.89243 35861 ft 452 kts 317°
2026-04-21 20:07 -1.73308 102.84974 35865 ft 452 kts 317°
2026-04-21 20:08 -1.68713 102.80685 35858 ft 452 kts 317°
2026-04-21 20:08 -1.64113 102.76392 35858 ft 452 kts 317°
2026-04-21 20:09 -1.59515 102.72101 35863 ft 453 kts 317°
2026-04-21 20:09 -1.54900 102.67795 35857 ft 453 kts 317°
2026-04-21 20:10 -1.50280 102.63480 35856 ft 454 kts 317°
2026-04-21 20:10 -1.45663 102.59166 35857 ft 454 kts 317°
2026-04-21 20:11 -1.41088 102.54893 35859 ft 453 kts 317°
2026-04-21 20:11 -1.36477 102.50586 35858 ft 453 kts 317°
2026-04-21 20:12 -1.31870 102.46284 35855 ft 453 kts 317°
2026-04-21 20:12 -1.27261 102.41980 35852 ft 453 kts 317°
2026-04-21 20:13 -1.22648 102.37671 35856 ft 453 kts 317°
2026-04-21 20:13 -1.18036 102.33365 35850 ft 453 kts 317°
2026-04-21 20:14 -1.13422 102.29056 35854 ft 453 kts 317°
2026-04-21 20:14 -1.08845 102.24783 35854 ft 454 kts 318°
2026-04-21 20:15 -1.04218 102.20463 35847 ft 455 kts 318°
2026-04-21 20:15 -0.99592 102.16145 35850 ft 455 kts 318°
2026-04-21 20:16 -0.94957 102.11818 35847 ft 455 kts 318°
2026-04-21 20:16 -0.90330 102.07498 35847 ft 455 kts 318°
2026-04-21 20:17 -0.85695 102.03172 35849 ft 455 kts 317°
2026-04-21 20:17 -0.81068 101.98853 35842 ft 455 kts 317°
2026-04-21 20:18 -0.77226 101.95267 35845 ft 455 kts 317°
2026-04-21 20:18 -0.71848 101.90247 35840 ft 454 kts 317°
2026-04-21 20:19 -0.67232 101.85939 35844 ft 454 kts 317°
2026-04-21 20:19 -0.62617 101.81632 35837 ft 454 kts 317°
2026-04-21 20:20 -0.58002 101.77325 35841 ft 454 kts 317°
2026-04-21 20:20 -0.53387 101.73017 35831 ft 454 kts 317°
2026-04-21 20:21 -0.48768 101.68706 35841 ft 454 kts 317°
2026-04-21 20:21 -0.44148 101.64395 35834 ft 454 kts 317°
2026-04-21 20:22 -0.39554 101.60108 35841 ft 454 kts 317°
2026-04-21 20:22 -0.32625 101.53641 35841 ft 454 kts 317°
2026-04-21 20:23 -0.28008 101.49333 35835 ft 454 kts 317°
2026-04-21 20:23 -0.23391 101.45025 35834 ft 454 kts 317°
2026-04-21 20:24 -0.18778 101.40720 35835 ft 454 kts 317°
2026-04-21 20:24 -0.14162 101.36413 35835 ft 454 kts 317°
2026-04-21 20:25 -0.09546 101.32105 35834 ft 454 kts 317°
2026-04-21 20:25 -0.04934 101.27801 35831 ft 454 kts 317°
2026-04-21 20:26 -0.00319 101.23495 35840 ft 454 kts 317°
2026-04-21 20:26 0.04269 101.19214 35835 ft 453 kts 317°
2026-04-21 20:27 0.08878 101.14912 35833 ft 453 kts 317°
2026-04-21 20:27 0.13486 101.10612 35832 ft 453 kts 317°
2026-04-21 20:28 0.18060 101.06345 35834 ft 452 kts 317°
2026-04-21 20:28 0.22690 101.02024 35831 ft 453 kts 317°
2026-04-21 20:29 0.27267 100.97752 35839 ft 453 kts 317°
2026-04-21 20:29 0.31870 100.93457 35830 ft 453 kts 317°
2026-04-21 20:30 0.36473 100.89162 35836 ft 453 kts 317°
2026-04-21 20:30 0.41083 100.84860 35839 ft 453 kts 317°
2026-04-21 20:31 0.45685 100.80565 35836 ft 453 kts 317°
2026-04-21 20:31 0.50293 100.76265 35836 ft 453 kts 317°
2026-04-21 20:32 0.54900 100.71965 35841 ft 453 kts 317°
2026-04-21 20:32 0.59509 100.67663 35842 ft 453 kts 317°
2026-04-21 20:33 0.64087 100.63390 35837 ft 453 kts 317°
2026-04-21 20:33 0.68696 100.59089 35839 ft 453 kts 317°
2026-04-21 20:34 0.73305 100.54787 35842 ft 453 kts 317°
2026-04-21 20:34 0.77913 100.50486 35835 ft 453 kts 317°
2026-04-21 20:35 0.82522 100.46184 35838 ft 453 kts 317°
2026-04-21 20:35 0.87125 100.41887 35844 ft 452 kts 317°
2026-04-21 20:36 0.91729 100.37590 35848 ft 452 kts 317°
2026-04-21 20:36 0.96330 100.33294 35846 ft 452 kts 317°
2026-04-21 20:37 1.00901 100.29027 35839 ft 452 kts 317°
2026-04-21 20:37 1.05511 100.24723 35852 ft 452 kts 317°
2026-04-21 20:38 1.10108 100.20431 35849 ft 452 kts 317°
2026-04-21 20:38 1.14707 100.16137 35849 ft 451 kts 318°
2026-04-21 20:39 1.19286 100.11861 35857 ft 450 kts 318°
2026-04-21 20:39 1.23867 100.07583 35852 ft 450 kts 318°
2026-04-21 20:40 1.27666 100.04036 35849 ft 450 kts 318°
2026-04-21 20:40 1.32990 99.99065 35850 ft 450 kts 318°
2026-04-21 20:41 1.36823 99.95485 35856 ft 450 kts 318°
2026-04-21 20:41 1.41370 99.91237 35854 ft 450 kts 318°
2026-04-21 20:42 1.45944 99.86965 35853 ft 450 kts 318°
2026-04-21 20:42 1.50556 99.82658 35844 ft 459 kts 318°
2026-04-21 20:43 1.55268 99.78258 35862 ft 469 kts 318°
2026-04-21 20:43 1.60066 99.73776 35862 ft 473 kts 318°
2026-04-21 20:44 1.64879 99.69278 35860 ft 473 kts 318°
2026-04-21 20:44 1.69629 99.64840 35835 ft 463 kts 318°
2026-04-21 20:45 1.72003 99.62639 35421 ft 466 kts 320°
2026-04-21 20:45 1.74631 99.60744 34589 ft 468 kts 333°
2026-04-21 20:45 1.77627 99.59586 33647 ft 470 kts 348°
2026-04-21 20:45 1.80884 99.59278 32646 ft 471 kts
2026-04-21 20:46 1.84104 99.59852 31703 ft 471 kts 18°
2026-04-21 20:46 1.87205 99.60889 30889 ft 470 kts 20°
2026-04-21 20:46 1.90269 99.61988 30164 ft 467 kts 20°
2026-04-21 20:46 1.93313 99.63080 29522 ft 461 kts 20°
2026-04-21 20:47 1.96327 99.64154 28746 ft 457 kts 20°
2026-04-21 20:47 1.99302 99.65209 28121 ft 451 kts 20°
2026-04-21 20:47 2.02251 99.66252 27400 ft 448 kts 20°
2026-04-21 20:47 2.05167 99.67281 26780 ft 442 kts 20°
2026-04-21 20:48 2.08060 99.68301 26090 ft 439 kts 20°
2026-04-21 20:48 2.10918 99.69308 25492 ft 433 kts 20°
2026-04-21 20:48 2.13751 99.70306 24832 ft 430 kts 20°
2026-04-21 20:48 2.16558 99.71295 24270 ft 425 kts 20°
2026-04-21 20:49 2.19332 99.72289 23670 ft 422 kts 21°
2026-04-21 20:49 2.22022 99.73342 23125 ft 417 kts 22°
2026-04-21 20:49 2.24677 99.74407 22876 ft 404 kts 22°
2026-04-21 20:49 2.27242 99.75437 22746 ft 390 kts 22°
2026-04-21 20:50 2.29748 99.76442 22598 ft 387 kts 22°
2026-04-21 20:50 2.32253 99.77446 22481 ft 387 kts 22°
2026-04-21 20:50 2.34753 99.78447 22346 ft 387 kts 22°
2026-04-21 20:50 2.37252 99.79447 22216 ft 386 kts 22°
2026-04-21 20:51 2.39746 99.80445 22084 ft 385 kts 22°
2026-04-21 20:51 2.42234 99.81441 21946 ft 384 kts 21°
2026-04-21 20:51 2.44693 99.82425 21821 ft 384 kts 21°
2026-04-21 20:51 2.47170 99.83416 21693 ft 383 kts 21°
2026-04-21 20:52 2.49644 99.84406 21553 ft 382 kts 21°
2026-04-21 20:52 2.52107 99.85391 21431 ft 381 kts 21°
2026-04-21 20:52 2.54565 99.86375 21301 ft 380 kts 21°
2026-04-21 20:52 2.57027 99.87360 21174 ft 379 kts 21°
2026-04-21 20:53 2.59477 99.88340 21044 ft 379 kts 21°
2026-04-21 20:53 2.61921 99.89319 20915 ft 378 kts 21°
2026-04-21 20:53 2.64358 99.90294 20792 ft 377 kts 21°
2026-04-21 20:53 2.66788 99.91264 20668 ft 375 kts 20°
2026-04-21 20:54 2.69292 99.91953 20519 ft 374 kts
2026-04-21 20:54 2.71877 99.91846 20398 ft 372 kts 347°
2026-04-21 20:54 2.74254 99.90865 20273 ft 372 kts 328°
2026-04-21 20:54 2.76333 99.89382 20155 ft 372 kts 323°
2026-04-21 20:55 2.78375 99.87786 20027 ft 372 kts 322°
2026-04-21 20:55 2.80409 99.86187 19897 ft 371 kts 322°
2026-04-21 20:55 2.82437 99.84601 19775 ft 370 kts 322°
2026-04-21 20:55 2.84463 99.83024 19653 ft 369 kts 322°
2026-04-21 20:56 2.86488 99.81452 19521 ft 368 kts 322°
2026-04-21 20:56 2.88512 99.79884 19400 ft 367 kts 322°
2026-04-21 20:56 2.90528 99.78324 19276 ft 366 kts 322°
2026-04-21 20:56 2.92544 99.76763 19154 ft 366 kts 322°
2026-04-21 20:57 2.94558 99.75205 19044 ft 365 kts 322°
2026-04-21 20:57 2.96563 99.73655 18905 ft 364 kts 322°
2026-04-21 20:57 2.98564 99.72107 18780 ft 363 kts 322°
2026-04-21 20:57 3.00559 99.70563 18663 ft 362 kts 322°
2026-04-21 20:58 3.02553 99.69022 18531 ft 361 kts 322°
2026-04-21 20:58 3.04540 99.67484 18419 ft 361 kts 322°
2026-04-21 20:58 3.06500 99.65968 18292 ft 360 kts 322°
2026-04-21 20:58 3.08481 99.64436 18180 ft 360 kts 322°
2026-04-21 20:59 3.10455 99.62908 18051 ft 359 kts 322°
2026-04-21 20:59 3.12428 99.61382 17924 ft 358 kts 322°
2026-04-21 20:59 3.14401 99.59856 17802 ft 358 kts 322°
2026-04-21 20:59 3.16366 99.58334 17675 ft 357 kts 322°
2026-04-21 21:00 3.18328 99.56817 17559 ft 356 kts 322°
2026-04-21 21:00 3.20284 99.55303 17440 ft 355 kts 322°
2026-04-21 21:00 3.22240 99.53790 17322 ft 354 kts 322°
2026-04-21 21:00 3.24190 99.52281 17208 ft 353 kts 322°
2026-04-21 21:01 3.26192 99.50854 17005 ft 354 kts 326°
2026-04-21 21:01 3.28253 99.49495 16346 ft 355 kts 327°
2026-04-21 21:01 3.30323 99.48152 15786 ft 354 kts 327°
2026-04-21 21:01 3.32378 99.46820 15269 ft 350 kts 327°
2026-04-21 21:02 3.34417 99.45496 14751 ft 347 kts 327°
2026-04-21 21:02 3.36439 99.44180 14244 ft 345 kts 327°
2026-04-21 21:02 3.38425 99.42888 13744 ft 336 kts 327°
2026-04-21 21:02 3.40381 99.41614 13211 ft 334 kts 327°
2026-04-21 21:03 3.42301 99.40362 12747 ft 334 kts 327°
2026-04-21 21:03 3.44241 99.39099 12383 ft 330 kts 327°
2026-04-21 21:03 3.46180 99.37835 11909 ft 331 kts 327°
2026-04-21 21:03 3.48100 99.36583 11425 ft 328 kts 327°
2026-04-21 21:04 3.50002 99.35344 10972 ft 323 kts 327°
2026-04-21 21:04 3.51850 99.34137 10705 ft 312 kts 326°
2026-04-21 21:04 3.53517 99.32803 10478 ft 301 kts 317°
2026-04-21 21:04 3.55024 99.31365 10089 ft 298 kts 315°
2026-04-21 21:05 3.56504 99.29909 9658 ft 298 kts 315°
2026-04-21 21:05 3.57949 99.28484 9260 ft 294 kts 315°
2026-04-21 21:05 3.59402 99.27053 8792 ft 292 kts 315°
2026-04-21 21:05 3.60856 99.25624 8328 ft 292 kts 315°
2026-04-21 21:06 3.62297 99.24209 7933 ft 289 kts 316°
2026-04-21 21:06 3.63721 99.22814 7589 ft 283 kts 316°
2026-04-21 21:06 3.65121 99.21440 7248 ft 281 kts 316°
2026-04-21 21:06 3.66515 99.20072 6917 ft 280 kts 316°
2026-04-21 21:07 3.67903 99.18711 6584 ft 278 kts 316°
2026-04-21 21:07 3.69285 99.17357 6233 ft 277 kts 316°
2026-04-21 21:07 3.70662 99.16010 5816 ft 277 kts 316°
2026-04-21 21:07 3.72037 99.14664 5403 ft 275 kts 316°
2026-04-21 21:08 3.73399 99.13328 5003 ft 273 kts 316°
2026-04-21 21:08 3.74747 99.12008 4611 ft 270 kts 316°
2026-04-21 21:08 3.76069 99.10713 4196 ft 268 kts 316°
2026-04-21 21:08 3.77402 99.09409 3823 ft 267 kts 316°
2026-04-21 21:09 3.78727 99.08109 3433 ft 267 kts 315°
2026-04-21 21:09 3.79862 99.06650 3094 ft 266 kts 296°
2026-04-21 21:09 3.80261 99.04856 3011 ft 266 kts 268°
2026-04-21 21:09 3.79765 99.03142 3002 ft 251 kts 239°
2026-04-21 21:10 3.78694 99.01834 3009 ft 236 kts 226°
2026-04-21 21:10 3.77575 99.00726 3035 ft 216 kts 224°
2026-04-21 21:10 3.76542 98.99728 3017 ft 197 kts 224°
2026-04-21 21:10 3.75583 98.98824 2911 ft 184 kts 224°
2026-04-21 21:11 3.74688 98.97933 2664 ft 180 kts 225°
2026-04-21 21:11 3.73808 98.97055 2409 ft 177 kts 225°
2026-04-21 21:11 3.72942 98.96194 2197 ft 172 kts 225°
2026-04-21 21:11 3.72110 98.95364 1971 ft 166 kts 225°
2026-04-21 21:12 3.71292 98.94548 1747 ft 166 kts 224°
2026-04-21 21:12 3.70471 98.93729 1532 ft 167 kts 224°
2026-04-21 21:12 3.69652 98.92911 1311 ft 164 kts 224°
2026-04-21 21:12 3.68878 98.92139 1102 ft 151 kts 224°
2026-04-21 21:13 3.68169 98.91432 918 ft 138 kts 224°
2026-04-21 21:13 3.67506 98.90769 767 ft 135 kts 224°
2026-04-21 21:13 3.66840 98.90104 576 ft 135 kts 224°
2026-04-21 21:13 3.66183 98.89448 387 ft 133 kts 223°
2026-04-21 21:14 3.65528 98.88799 208 ft 133 kts 224°
2026-04-21 21:14 3.64877 98.88142 95 ft 134 kts 224°
2026-04-21 21:14 3.64223 98.87495 43 ft 123 kts 223°
2026-04-21 21:14 3.63714 98.86998 44 ft 78 kts 224°
2026-04-21 21:15 3.63390 98.86672 41 ft 60 kts 225°
2026-04-21 21:15 3.63126 98.86410 42 ft 44 kts 224°
2026-04-21 21:15 3.62909 98.86305 44 ft 24 kts 197°
2026-04-21 21:15 3.62846 98.86334 45 ft 9 kts 108°
2026-04-21 21:16 3.62856 98.86383 46 ft 11 kts 57°
2026-04-21 21:16 3.62916 98.86445 45 ft 15 kts 46°
2026-04-21 21:16 3.63006 98.86538 45 ft 23 kts 45°
2026-04-21 21:16 3.63134 98.86667 45 ft 30 kts 45°
2026-04-21 21:17 3.63295 98.86830 45 ft 36 kts 46°
2026-04-21 21:17 3.63477 98.87023 45 ft 40 kts 47°
2026-04-21 21:17 3.63681 98.87233 45 ft 44 kts 43°
2026-04-21 21:17 3.63910 98.87452 45 ft 46 kts 44°
2026-04-21 21:18 3.64139 98.87670 45 ft 44 kts 42°
2026-04-21 21:18 3.64300 98.87826 45 ft 6 kts 67°
2026-04-21 21:18 3.64293 98.87838 45 ft 2 kts 128°
2026-04-21 21:18 3.64268 98.87879 46 ft 7 kts 96°
2026-04-21 21:19 3.64295 98.87936 46 ft 13 kts 51°
2026-04-21 21:19 3.64286 98.87992 46 ft 9 kts 132°
2026-04-21 21:19 3.64217 98.88062 46 ft 20 kts 136°
2026-04-21 21:19 3.64116 98.88143 46 ft 8 kts 179°
2026-04-21 21:20 3.64072 98.88109 46 ft 13 kts 225°
2026-04-21 21:20 3.63988 98.88024 46 ft 18 kts 226°
2026-04-21 21:20 3.63907 98.87964 46 ft 8 kts 179°
2026-04-21 21:20 3.63865 98.87985 46 ft 9 kts 139°
2026-04-21 21:21 3.63824 98.88008 46 ft 3 kts 191°
2026-04-21 21:21 3.63781 98.87974 46 ft 9 kts 226°
2026-04-21 21:21 3.63762 98.87954 46 ft 0 kts 226°